HST (20580 NORAD) Tracking and Keplerian Element Data

This shows tracking and keplerian element data for the satellite.

Feedback or suggestion? Click here.




ElementValue
Catalog20580
NameHST
Epoch Orbit67590
Epoch Day160.04557392
Epoch Year2024
RAAN46.3736
Inclination28.4697
Eccentricity0.0002509
Argument of Perigee302.9327
Mean Anonmoly57.1024
Mean Motion15.17631763
Decay Rate9.423E-05
L11 20580U 90037B 24160.04557392 .00009423 00000+0 44611-3 0 9998
L22 20580 28.4697 46.3736 0002509 302.9327 57.1024 15.17631763675900



Live tracking and technical data element details for HST (NORAD 20580). HST can be tracked NOW for your location showing map with azimuth and elevation plus other details from your city location.







IsCatalogInMostPopularTable: catalog: 20580, numindb: 1462
Update: records affected: 1



GetName: 20580 HST

Hit Count: updated at: Tue, 17 Sep 2024 13:12:31 GMT